Tracking 25709 objects as of 23-May-2022
HD Live streaming from Space Station
objects crossing your sky now

COSMOS 2251 DEB

Track COSMOS 2251 DEB now!
10-day predictions


NORAD ID: 34442
Int'l Code: 1993-036SK
Perigee: 624.4 km
Apogee: 725.9 km
Inclination: 74.0 °
Period: 98.1 minutes
Semi major axis: 7046 km
RCS: 0.022 m2 (small)
Launch date: June 16, 1993
Source: Commonwealth of Independent States (former USSR) (CIS)
Launch site: PLESETSK MISSILE AND SPACE COMPLEX (PKMTR)

Note: This is SATELLITE DEBRIS
aabbcc
Your satellite tracking list
Your tracking list is empty




NASA's NSSDC Master Catalog

Two Line Element Set (TLE):
1 34442U 93036SK  22142.42607396  .00006628  00000-0  11206-2 0  9990
2 34442  74.0176 122.6143 0072007 217.9691 307.2614 14.67836903706030
Source of the keplerian elements: AFSPC